Flag for U.S.A. Weather past 2 weeks in Cumberland, Maryland, U.S.A.

Now
58 °F

Overcast.


Feels Like: 55 °F
Forecast: 50 / 61 °F
Wind: 15 mph from West

Location: Eastern West Virginia Regional Airport

Current Time: Apr 21, 2015 at 3:38:45 AM

Latest Report: Apr 21, 2015 at 2:53 AM


Visibility: 10 mi

Pressure: 29.63 "Hg

Humidity: 60%

Dew point: 44 °F

Location of CumberlandLocation

Historic Weather in Cumberland — Graph

°F

Cumberland temperature yesterday

Maximum temperature yesterday: 77 °F (at 4:53 PM)
Minimum temperature yesterday: 50 °F (at 5:53 AM)
Average temperature yesterday: 63 °F

Past Weeks' High & Low Weather Summary

 TemperatureHumidityPressure
High79 °F (Apr 6, 3:53 PM)97% (Apr 15, 4:53 AM)30.42 "Hg (Apr 15, 4:53 AM)
Low32 °F (Apr 12, 6:53 AM)13% (Apr 6, 2:53 PM)29.44 "Hg (Apr 20, 7:53 PM)
Average58 °F62%30.10 "Hg
* Reported Apr 6 1:53 AM — Apr 21 1:53 AM, Cumberland, Weather by CustomWeather, © 2015

Note: Actual official high and low records may vary slightly from our data, if they occured in-between our weather recording intervals... More about our weather records

Advertising

Cumberland weather history for previous 24 hours

 ConditionsComfort  
Time TempWeatherWind HumidityBarometerVisibility
1:53 AM
Tue, Apr 21
59 °FMostly cloudy.16 mph78%29.62 "Hg10 mi
12:53 AM60 °FPassing clouds.5 mph72%29.60 "Hg10 mi
11:53 PM
Mon, Apr 20
61 °FMostly cloudy.9 mph70%29.58 "Hg10 mi
10:53 PM62 °FMostly cloudy.8 mph73%29.57 "Hg10 mi
9:53 PM70 °FMostly cloudy.23 mph51%29.52 "Hg10 mi
8:53 PM71 °FScattered clouds.6 mph51%29.48 "Hg10 mi
7:53 PM74 °FSunny.9 mph52%29.44 "Hg10 mi
6:53 PM77 °FSunny.12 mph47%29.45 "Hg10 mi
5:53 PM77 °FSunny.12 mph45%29.47 "Hg10 mi
4:53 PM77 °FScattered clouds.12 mph50%29.49 "Hg10 mi
3:53 PM76 °FScattered clouds.14 mph52%29.52 "Hg10 mi
2:53 PM73 °FBroken clouds.15 mph57%29.55 "Hg10 mi
1:53 PM72 °FPassing clouds.9 mph61%29.57 "Hg10 mi
12:53 PM68 °FSunny.6 mph70%29.61 "Hg10 mi
11:53 AM64 °FScattered clouds.7 mph75%29.63 "Hg10 mi
10:53 AM59 °FOvercast.No wind81%29.67 "Hg10 mi
9:53 AM56 °FLow clouds.3 mph84%29.68 "Hg10 mi
8:53 AM54 °FLow clouds.No wind90%29.70 "Hg10 mi
7:53 AM52 °FLow clouds.5 mph93%29.70 "Hg9 mi
6:53 AM51 °FLow clouds.3 mph92%29.68 "Hg10 mi
5:53 AM50 °FMostly cloudy.No wind93%29.67 "Hg10 mi
4:53 AM51 °FPassing clouds.7 mph89%29.66 "Hg10 mi
4:00 AM52 °FLight rain. Fog.12 mph93%29.69 "Hg6 mi
3:00 AM53 °FHeavy rain. Fog.9 mph93%29.67 "Hg2 mi
Weather by CustomWeather, © 2015

See weather overviewHow to use our weather pages